Regional Weather Roundup
Issued by NWS

Home | Current Version | Previous Version | Text Only | Print | Product List | Glossary On
Versions: 1 2 3 4 5 6 7 8 9 10 11 12 13 14 15 16 17 18 19 20 21 22 23 24 25 26 27
000
ASUS46 KPQR 231510
RWROR

OREGON REGIONAL WEATHER ROUNDUP
NATIONAL WEATHER SERVICE PORTLAND OR
800 AM PDT TUE MAY 23 2017

NOTE: "FAIR" INDICATES FEW OR NO CLOUDS BELOW 12,000 FEET WITH
NO SIGNIFICANT WEATHER AND/OR OBSTRUCTIONS TO VISIBILITY.

ORZ001>013-231600-
NORTHWEST OREGON


CITY           SKY/WX    TMP DP  RH WIND       PRES   REMARKS
ASTORIA        MOSUNNY   56  51  84 NW12      30.08R
NEWPORT        MOSUNNY   55  54  94 N14       30.08S FOG
PORTLAND       MOSUNNY   66  52  60 CALM      30.01R
VANCOUVER WA   SUNNY     68  52  56 NW8       30.01R
SCAPPOOSE      SUNNY     65  56  72 CALM      30.00S
HILLSBORO      SUNNY     68  56  65 CALM      30.00R
AURORA         SUNNY     69  54  58 E3        30.01S
MCMINNVILLE    SUNNY     64  56  75 CALM      30.01S
SALEM          SUNNY     68  58  70 CALM      30.00S
CORVALLIS      SUNNY     68  55  64 CALM      30.01R
EUGENE         MOSUNNY   65  62  90 CALM      30.01S
$$

ORZ021-028-231600-
SOUTHWEST OREGON


CITY           SKY/WX    TMP DP  RH WIND       PRES   REMARKS
NORTH BEND     CLOUDY    55  54  94 NE7       30.06R
BROOKINGS      SUNNY     59  55  87 CALM      29.96S
ROSEBURG       SUNNY     65  57  75 CALM      30.01R
SEXTON SUMMIT  SUNNY     72  40  31 CALM      30.11S
MEDFORD        SUNNY     66  53  63 CALM      30.03S
$$

ORZ014>016-041-231600-
COLUMBIA GORGE


CITY           SKY/WX    TMP DP  RH WIND       PRES   REMARKS
TROUTDALE      SUNNY     66  56  70 CALM      30.00S
HOOD RIVER     SUNNY     63  52  67 S3        30.01F
THE DALLES     SUNNY     63  52  67 CALM      30.00S
$$

ORZ029>031-041-044-049-050-061>064-502-503-505>511-231600-
EASTERN OREGON


CITY           SKY/WX    TMP DP  RH WIND       PRES   REMARKS
REDMOND        SUNNY     64  44  48 SE7       30.10S
BEND           SUNNY     64  46  52 SW7       30.07S
PRINEVILLE     SUNNY     63  48  59 MISG      30.12S
KLAMATH FALLS  SUNNY     62  51  67 CALM      30.15S
HERMISTON      SUNNY     64  50  60 CALM      29.99S
PENDLETON      SUNNY     65  50  58 SE7       30.01S
JOHN DAY       MOSUNNY   60  47  64 CALM      30.14S
MEACHAM        SUNNY     58  38  47 CALM      30.11S
LA GRANDE      MOSUNNY   57  45  62 CALM      30.11S
BAKER CITY     MOSUNNY   57  48  72 CALM      30.13F
BURNS          SUNNY     58  42  55 CALM      30.18S
ROME             N/A     63  38  39 S3        30.16S
ONTARIO        MOSUNNY   61  47  59 CALM      30.13S
$$




USA.gov is the U.S. government's official web portal to all federal, state and local government web resources and services.